Simultaneous Nadir Overpasses (SNOs) Predictions

Prediction of SNOs between LANDSAT-8 and METOP-A Satellite Orbit:

Table of predicted SNOs for the next 14.0 days since TLE Epoch: 8/30/2015
Index Date (LANDSAT-8) Time (LANDSAT-8) Lat,Lon (LANDSAT-8) SZA (LANDSAT-8 ) Date (METOP-A) Time (METOP-A) Lat,Lon (METOP-A) SZA (METOP-A ) Distance(km) Time Diff (sec)
1 09/01/2015 14:49:56 81.23, -0.82 75.22 09/01/2015 14:48:45 81.23, -0.74 75.20 1.42 71
2 09/01/2015 15:39:22 -81.24, 167.12 104.73 09/01/2015 15:39:25 -81.24, 166.98 104.75 2.47 3
3 09/04/2015 10:24:12 81.22, 65.46 76.24 09/04/2015 10:23:07 81.22, 65.31 76.20 2.60 65
4 09/04/2015 11:13:38 -81.24,-126.57 103.70 09/04/2015 11:13:46 -81.24,-126.58 103.70 0.27 8
5 09/07/2015 05:58:27 81.22, 132.05 77.33 09/07/2015 05:57:27 81.23, 132.09 77.31 0.67 60
6 09/07/2015 06:47:53 -81.25, -59.95 102.61 09/07/2015 06:48:06 -81.25, -59.78 102.59 2.75 13
7 09/10/2015 01:32:41 81.23,-161.42 78.42 09/10/2015 01:31:47 81.23,-161.54 78.38 2.08 54
8 09/10/2015 02:22:07 -81.25, 6.61 101.52 09/10/2015 02:22:26 -81.25, 6.59 101.51 0.62 19
9 09/12/2015 21:06:56 81.23, -94.96 79.51 09/12/2015 21:06:07 81.23, -94.81 79.51 2.43 49




NCC Satellite Simultaneous Nadir Overpasses (SNOs) Prediction Service
